Location: Caltech
(34.1382°N, 118.1253°W)
Time: 12:20:37
(UTC-07:00)

Cosmos 1943 Rocket - Visible Passes

Search period start: 31 October 2014 00:00
Search period end: 09 November 2014 23:00
Orbit: 812 x 845 km, 71.0° (Epoch: 31 October)

Date Brightness Start Highest point End Pass type
(mag) Time Alt. Az. Time Alt. Az. Time Alt. Az.
05 Nov 4.4 19:33:01 10° NNW 19:33:41 14° N 19:33:41 14° N visible
06 Nov 4.0 19:14:02 10° N 19:15:34 19° N 19:15:34 19° N visible
07 Nov 3.5 18:55:04 10° N 18:57:37 25° N 18:57:37 25° N visible
08 Nov 3.0 18:36:07 10° N 18:39:51 32° NNE 18:39:51 32° NNE visible
08 Nov 4.8 20:20:25 10° NW 20:21:27 14° WNW 20:21:27 14° WNW visible
09 Nov 2.7 18:17:11 10° N 18:22:11 33° ENE 18:22:24 33° ENE visible
09 Nov 4.2 20:01:08 10° NW 20:04:01 23° WNW 20:04:01 23° WNW visible
